CST,Max TemperatureF,Mean TemperatureF,Min TemperatureF,Max Dew PointF,MeanDew PointF,Min DewpointF,Max Humidity, Mean Humidity, Min Humidity, Max Sea Level PressureIn, Mean Sea Level PressureIn, Min Sea Level PressureIn, Max VisibilityMiles, Mean VisibilityMiles, Min VisibilityMiles, Max Wind SpeedMPH, Mean Wind SpeedMPH, Max Gust SpeedMPH,PrecipitationIn, CloudCover, Events, WindDirDegrees
2012-2-1,66,50,33,25,19,12,56,32,12,30.29,30.21,30.16,10,10,10,13,5,16,0.00,0,,335
2012-2-2,71,50,30,32,17,1,52,32,11,30.16,30.00,29.88,10,10,10,25,8,31,0.00,0,,200
2012-2-3,66,46,26,30,18,10,93,43,11,30.08,30.01,29.93,10,10,10,14,6,17,0.00,0,,333
2012-2-4,50,42,33,28,23,16,81,52,26,30.27,30.20,30.12,10,10,10,28,21,33,0.00,1,,27
2012-2-5,44,38,33,25,22,18,70,55,34,30.35,30.29,30.24,10,10,10,23,18,28,0.00,7,,40
2012-2-6,55,40,26,28,23,16,69,49,33,30.26,30.19,30.07,10,10,10,15,7,20,0.00,2,,118
2012-2-7,60,43,26,30,24,18,75,52,29,30.23,30.16,30.10,10,10,9,26,10,30,0.00,0,,14
2012-2-8,55,42,30,34,29,27,86,65,41,30.36,30.29,30.19,10,10,10,17,12,22,0.00,2,,67
2012-2-9,62,44,26,37,29,19,86,59,34,30.23,30.15,30.04,10,10,10,21,6,24,0.00,1,,280
2012-2-10,60,46,33,34,28,16,87,58,19,30.28,30.19,30.09,10,10,10,24,10,24,0.00,1,,19
2012-2-11,60,42,23,28,23,14,74,53,29,30.29,30.23,30.16,10,10,10,24,8,30,0.00,0,,44
2012-2-12,37,34,32,36,25,19,93,71,56,30.25,30.14,29.98,10,10,10,15,11,23,0.00,8,,85
2012-2-13,60,46,32,37,32,23,100,68,25,30.02,29.97,29.93,10,7,0,25,8,32,0.00,3,,217
2012-2-14,66,47,28,34,28,25,93,58,21,29.98,29.92,29.85,10,10,10,20,8,26,0.00,1,,266
2012-2-15,60,44,28,28,22,14,74,43,18,30.11,30.04,29.96,10,10,10,22,10,29,0.00,0,,291
2012-2-16,64,48,33,37,25,14,62,43,30,30.15,30.08,29.98,10,10,8,26,11,29,0.00,1,Thunderstorm,36
2012-2-17,59,48,37,41,37,34,93,74,42,30.05,30.00,29.94,10,10,10,20,9,23,0.00,6,,43
2012-2-18,55,46,37,37,33,28,87,65,36,30.10,30.04,29.97,10,10,10,21,10,25,0.02,4,,292
2012-2-19,62,42,23,34,24,18,100,58,18,30.11,30.00,29.87,10,10,10,25,8,36,0.00,0,,160
2012-2-20,62,47,32,28,18,12,81,36,14,30.11,30.03,29.94,10,10,10,26,10,34,0.00,0,,265
2012-2-21,69,46,24,19,13,3,59,31,11,30.20,30.14,30.08,10,10,10,18,8,24,0.00,0,,293
2012-2-22,69,51,33,16,9,0,35,19,10,30.13,30.07,29.96,10,10,10,30,11,37,0.00,0,,250
2012-2-23,73,58,44,28,17,1,29,19,16,29.93,29.86,29.78,10,10,10,34,15,43,0.00,0,,236
2012-2-24,53,43,33,27,14,9,46,32,24,30.29,30.19,29.98,10,10,4,33,22,40,0.00,2,,34
2012-2-25,60,40,21,27,18,7,63,40,22,30.31,30.20,30.09,10,10,10,20,7,25,0.00,0,,174
2012-2-26,71,50,28,34,26,16,75,42,15,30.10,30.04,29.96,10,10,10,15,6,22,0.00,0,,158
2012-2-27,73,54,35,30,26,19,65,39,13,30.18,30.09,30.04,10,10,10,18,8,30,0.00,0,,34
2012-2-28,78,63,48,46,36,16,77,44,11,30.05,30.01,29.96,10,10,0,30,13,37,0.00,0,,193
2012-2-29,69,52,35,21,11,3,33,18,10,30.20,30.14,30.09,10,10,10,22,9,28,0.00,0,,283